Terminal Aerodrome Forecast
Issued by NWS

Home | Current Version | Previous Version | Text Only | Print | Product List | Glossary On
Versions: 1 2 3 4 5 6 7 8 9 10 11 12 13 14 15 16 17 18 19 20 21 22 23 24 25
000
FTUS43 KOAX 051142
TAFSNY
TAF
KSNY 051142Z 0512/0612 24007KT P6SM SKC
     FM051800 29015G25KT P6SM FEW200
     FM052300 27010KT P6SM BKN200=

USA.gov is the U.S. government's official web portal to all federal, state and local government web resources and services.